EN

Hourly Weather Alsheim

Today, 22 January, Friday

Time Temperature Precipitation Wind Pressure Humidity
00:00 +8°C° 0.2 mm 6 mps 736 mmHg 81%
01:00 +8°C° 0.2 mm 6 mps 736 mmHg 79%
02:00 +8°C° 0.2 mm 7 mps 735 mmHg 79%
03:00 +8°C° 0.2 mm 7 mps 735 mmHg 79%
04:00 +8°C° 0.2 mm 7 mps 734 mmHg 79%
05:00 +8°C° 0.2 mm 7 mps 734 mmHg 79%
06:00 +8°C° 0.2 mm 7 mps 734 mmHg 79%
07:00 +8°C° 0.2 mm 7 mps 734 mmHg 79%
08:00 +7°C° 0.5 mm 6 mps 735 mmHg 81%
09:00 +7°C° 0.5 mm 5 mps 735 mmHg 82%
10:00 +6°C° 0.5 mm 4 mps 735 mmHg 84%
11:00 +7°C° 0.3 mm 3 mps 735 mmHg 83%
12:00 +7°C° 0.3 mm 2 mps 736 mmHg 81%
13:00 +7°C° 0.3 mm 2 mps 736 mmHg 79%
14:00 +7°C° 0.2 mm 1 mps 736 mmHg 78%
15:00 +7°C° 0.2 mm 1 mps 736 mmHg 76%
16:00 +6°C° 0.2 mm 0 mps 735 mmHg 75%
17:00 +7°C° 0 mm 1 mps 736 mmHg 76%
18:00 +7°C° 0 mm 1 mps 736 mmHg 78%
19:00 +6°C° 0 mm 1 mps 736 mmHg 79%
20:00 +6°C° 0.5 mm 1 mps 736 mmHg 82%
21:00 +5°C° 0.5 mm 2 mps 737 mmHg 85%
22:00 +3°C° 0.5 mm 3 mps 737 mmHg 88%
23:00 +3°C° 0.5 mm 3 mps 737 mmHg 88%

Tomorrow, 23 January, Saturday

Time Temperature Precipitation Wind Pressure Humidity
00:00 +4°C° 0.5 mm 2 mps 737 mmHg 89%
01:00 +4°C° 0.5 mm 2 mps 738 mmHg 89%
02:00 +4°C° 0 mm 2 mps 738 mmHg 89%
03:00 +3°C° 0 mm 2 mps 738 mmHg 88%
04:00 +4°C° 0 mm 1 mps 738 mmHg 87%
05:00 +4°C° 0 mm 1 mps 739 mmHg 88%
06:00 +4°C° 0 mm 1 mps 739 mmHg 89%
07:00 +4°C° 0 mm 1 mps 739 mmHg 89%
08:00 +4°C° 0 mm 1 mps 739 mmHg 88%
09:00 +3°C° 0 mm 2 mps 739 mmHg 88%
10:00 +3°C° 0 mm 2 mps 739 mmHg 87%
11:00 +4°C° 0 mm 2 mps 739 mmHg 84%
12:00 +5°C° 0 mm 2 mps 738 mmHg 81%
13:00 +5°C° 0 mm 2 mps 738 mmHg 79%
14:00 +5°C° 0.1 mm 2 mps 738 mmHg 77%
15:00 +5°C° 0.1 mm 2 mps 738 mmHg 76%
16:00 +6°C° 0.1 mm 1 mps 737 mmHg 75%
17:00 +5°C° 0 mm 1 mps 738 mmHg 78%
18:00 +5°C° 0 mm 1 mps 738 mmHg 80%
19:00 +4°C° 0 mm 1 mps 738 mmHg 83%
20:00 +4°C° 0 mm 1 mps 738 mmHg 82%
21:00 +4°C° 0 mm 1 mps 738 mmHg 82%
22:00 +3°C° 0 mm 0 mps 738 mmHg 82%
23:00 +2°C° 0 mm 0 mps 738 mmHg 82%

Day after tomorrow, 24 January, Sunday

Time Temperature Precipitation Wind Pressure Humidity
00:00 +3°C° 0 mm 1 mps 738 mmHg 83%
01:00 +3°C° 0 mm 1 mps 738 mmHg 84%
02:00 +3°C° 0.6 mm 1 mps 738 mmHg 87%
03:00 +2°C° 0.6 mm 2 mps 738 mmHg 91%
04:00 0°C° 0.6 mm 3 mps 738 mmHg 94%
05:00 0°C° 0.5 mm 3 mps 739 mmHg 93%
06:00 0°C° 0.5 mm 3 mps 739 mmHg 91%
07:00 0°C° 0.5 mm 3 mps 740 mmHg 90%
08:00 +1°C° 0.1 mm 3 mps 740 mmHg 85%
09:00 0°C° 0.1 mm 4 mps 741 mmHg 81%
10:00 0°C° 0.1 mm 4 mps 741 mmHg 76%
11:00 0°C° 0 mm 4 mps 741 mmHg 73%
12:00 0°C° 0 mm 4 mps 741 mmHg 71%
13:00 +2°C° 0 mm 3 mps 742 mmHg 68%
14:00 +2°C° 0 mm 3 mps 741 mmHg 69%
15:00 +1°C° 0 mm 3 mps 741 mmHg 71%
16:00 +2°C° 0 mm 2 mps 741 mmHg 72%
17:00 +2°C° 0 mm 2 mps 741 mmHg 74%
18:00 +3°C° 0 mm 1 mps 741 mmHg 76%
19:00 +2°C° 0 mm 1 mps 742 mmHg 78%
20:00 +2°C° 0 mm 1 mps 741 mmHg 78%
21:00 +2°C° 0 mm 1 mps 741 mmHg 79%
22:00 +2°C° 0 mm 1 mps 741 mmHg 79%
23:00 +2°C° 0.1 mm 1 mps 741 mmHg 81%

25 January, Monday

Time Temperature Precipitation Wind Pressure Humidity
00:00 +1°C° 0.1 mm 1 mps 742 mmHg 83%
01:00 0°C° 0.1 mm 0 mps 742 mmHg 85%
02:00 0°C° 0.2 mm 0 mps 742 mmHg 86%
03:00 0°C° 0.2 mm 0 mps 743 mmHg 87%
04:00 0°C° 0.2 mm 0 mps 743 mmHg 88%
05:00 0°C° 0.1 mm 0 mps 744 mmHg 88%
06:00 0°C° 0.1 mm 0 mps 744 mmHg 88%
07:00 0°C° 0.1 mm 0 mps 745 mmHg 89%
08:00 0°C° 0 mm 0 mps 746 mmHg 88%
09:00 +1°C° 0 mm 1 mps 746 mmHg 87%
10:00 +2°C° 0 mm 1 mps 747 mmHg 86%
11:00 +1°C° 0 mm 2 mps 747 mmHg 86%
12:00 +1°C° 0 mm 2 mps 747 mmHg 85%
13:00 +1°C° 0 mm 3 mps 748 mmHg 84%
14:00 +1°C° 0.1 mm 3 mps 748 mmHg 85%
15:00 -1°C° 0.1 mm 4 mps 747 mmHg 86%
16:00 -1°C° 0.1 mm 4 mps 747 mmHg 87%
17:00 -1°C° 0.2 mm 4 mps 747 mmHg 89%
18:00 0°C° 0.2 mm 3 mps 748 mmHg 91%
19:00 0°C° 0.2 mm 3 mps 748 mmHg 93%
20:00 0°C° 0 mm 3 mps 748 mmHg 91%
21:00 -1°C° 0 mm 4 mps 749 mmHg 88%
22:00 -1°C° 0 mm 4 mps 749 mmHg 85%
23:00 -1°C° 0 mm 4 mps 749 mmHg 84%

26 January, Tuesday

Time Temperature Precipitation Wind Pressure Humidity
00:00 -1°C° 0 mm 4 mps 750 mmHg 83%
01:00 0°C° 0 mm 3 mps 750 mmHg 82%
02:00 0°C° 0.2 mm 3 mps 750 mmHg 86%
03:00 0°C° 0.2 mm 3 mps 750 mmHg 90%
04:00 0°C° 0.2 mm 3 mps 751 mmHg 94%
05:00 -1°C° 0.3 mm 4 mps 751 mmHg 92%
06:00 -1°C° 0.3 mm 4 mps 751 mmHg 90%
07:00 0°C° 0.3 mm 4 mps 752 mmHg 88%
08:00 0°C° 0.1 mm 4 mps 752 mmHg 87%
09:00 0°C° 0.1 mm 4 mps 753 mmHg 86%
10:00 0°C° 0.1 mm 4 mps 753 mmHg 85%
11:00 0°C° 0 mm 4 mps 753 mmHg 83%
12:00 +1°C° 0 mm 4 mps 753 mmHg 81%
13:00 +1°C° 0 mm 4 mps 754 mmHg 79%
14:00 +1°C° 0 mm 4 mps 754 mmHg 80%
15:00 +1°C° 0 mm 4 mps 753 mmHg 81%
16:00 +2°C° 0 mm 3 mps 753 mmHg 82%
17:00 +2°C° 0 mm 3 mps 753 mmHg 83%
18:00 +1°C° 0 mm 3 mps 753 mmHg 85%
19:00 +1°C° 0 mm 3 mps 753 mmHg 87%
20:00 +1°C° 0.2 mm 3 mps 752 mmHg 90%
21:00 0°C° 0.2 mm 4 mps 752 mmHg 92%
22:00 0°C° 0.2 mm 4 mps 751 mmHg 94%
23:00 0°C° 0.6 mm 5 mps 750 mmHg 95%

27 January, Wednesday

Time Temperature Precipitation Wind Pressure Humidity
00:00 +1°C° 0.6 mm 5 mps 749 mmHg 95%
01:00 +1°C° 0.6 mm 6 mps 748 mmHg 95%
02:00 +2°C° 0.5 mm 6 mps 748 mmHg 93%
03:00 +3°C° 0.5 mm 6 mps 747 mmHg 91%
04:00 +3°C° 0.5 mm 5 mps 746 mmHg 90%
05:00 +3°C° 0.2 mm 5 mps 747 mmHg 89%
06:00 +3°C° 0.2 mm 5 mps 747 mmHg 88%
07:00 +3°C° 0.2 mm 5 mps 747 mmHg 87%
08:00 +5°C° 0.1 mm 5 mps 748 mmHg 84%
09:00 +5°C° 0.1 mm 5 mps 749 mmHg 82%
10:00 +5°C° 0.1 mm 5 mps 750 mmHg 80%
11:00 +4°C° 0 mm 6 mps 750 mmHg 78%
12:00 +5°C° 0 mm 6 mps 751 mmHg 77%
13:00 +5°C° 0 mm 6 mps 752 mmHg 75%
14:00 +5°C° 0 mm 6 mps 752 mmHg 75%
15:00 +6°C° 0 mm 5 mps 753 mmHg 75%
16:00 +5°C° 0 mm 5 mps 753 mmHg 76%
17:00 +5°C° 0 mm 4 mps 753 mmHg 78%
18:00 +4°C° 0 mm 4 mps 754 mmHg 81%
19:00 +4°C° 0 mm 3 mps 754 mmHg 84%
20:00 +4°C° 0 mm 3 mps 754 mmHg 86%
21:00 +4°C° 0 mm 3 mps 754 mmHg 87%
22:00 +4°C° 0 mm 3 mps 754 mmHg 89%
23:00 +4°C° 0 mm 3 mps 754 mmHg 89%
Show more